Flag for Germany Weather past 2 weeks in Bühl, Baden-Württemberg, Germany

Now
63 °F

Sunny.


Feels Like: 63 °F
Forecast: 62 / 87 °F
Wind: 2 mph from North

Location: Karlsruhe - Baden Wurttemberg

Current Time: Aug 4, 2015 at 7:35:12 AM

Latest Report: Aug 4, 2015 at 7:20 AM


Visibility: 10 mi

Pressure: 29.89 "Hg

Humidity: 83%

Dew point: 57 °F

Location of BühlLocation

Historic Weather in Bühl — Graph

°F

Bühl temperature yesterday

Maximum temperature yesterday: 91 °F (at 4:20 PM)
Minimum temperature yesterday: 54 °F (at 5:50 AM)
Average temperature yesterday: 77 °F

Past Weeks' High & Low Weather Summary

 TemperatureHumidityPressure
High91 °F (Jul 21, 5:50 PM)94% (Aug 2, 6:20 AM)30.12 "Hg (Aug 2, 6:20 AM)
Low46 °F (Jul 26, 6:50 AM)20% (Aug 3, 4:20 PM)29.65 "Hg (Jul 24, 8:20 PM)
Average71 °F54%29.93 "Hg
* Reported Jul 20 6:20 AM — Aug 4 6:20 AM, Bühl, Weather by CustomWeather, © 2015

Note: Actual official high and low records may vary slightly from our data, if they occured in-between our weather recording intervals... More about our weather records

Advertising

Bühl weather history for previous 24 hours

 ConditionsComfort  
Time TempWeatherWind HumidityBarometerVisibility
6:20 AM
Tue, Aug 4
61 °FClear.2 mph88%29.89 "Hg10 mi
5:50 AM61 °FClear.2 mph88%29.89 "Hg10 mi
5:20 AM61 °FClear.1 mph88%29.89 "Hg10 mi
4:50 AM61 °FClear.2 mph88%29.89 "Hg10 mi
11:50 PM
Mon, Aug 3
70 °FClear.No wind64%29.92 "Hg10 mi
11:20 PM72 °FClear.3 mph65%29.95 "Hg10 mi
10:50 PM73 °FClear.1 mph53%29.95 "Hg10 mi
10:20 PM73 °FClear.1 mph57%29.95 "Hg10 mi
9:50 PM75 °FPassing clouds.5 mph54%29.95 "HgN/A
9:20 PM79 °FSunny.No wind51%29.95 "Hg10 mi
8:50 PM81 °FSunny.No wind48%29.95 "Hg10 mi
8:20 PM84 °FSunny.No wind40%29.95 "Hg10 mi
7:50 PM90 °FSunny.1 mph29%29.95 "Hg10 mi
7:20 PM90 °FSunny.3 mph26%29.95 "Hg10 mi
6:50 PM90 °FSunny.5 mph27%29.95 "Hg10 mi
6:20 PM91 °FSunny.5 mph24%29.95 "Hg10 mi
5:50 PM91 °FSunny.6 mph23%29.95 "Hg10 mi
5:20 PM91 °FSunny.6 mph24%29.98 "Hg10 mi
4:50 PM91 °FSunny.6 mph21%29.98 "Hg10 mi
4:20 PM91 °FSunny.5 mph20%29.98 "Hg10 mi
3:50 PM90 °FSunny.5 mph21%30.01 "Hg10 mi
3:20 PM88 °FSunny.6 mph25%30.01 "Hg10 mi
2:20 PM88 °FPassing clouds.7 mph29%30.01 "HgN/A
1:50 PM86 °FSunny.3 mph31%30.01 "Hg6 mi
1:20 PM84 °FPassing clouds.6 mph35%30.01 "HgN/A
12:50 PM84 °FPassing clouds.6 mph35%30.04 "HgN/A
12:20 PM82 °FPassing clouds.6 mph37%30.04 "HgN/A
11:50 AM81 °FPassing clouds.6 mph42%30.04 "HgN/A
11:20 AM81 °FSunny.5 mph39%30.04 "Hg10 mi
10:50 AM77 °FSunny.3 mph44%30.04 "Hg10 mi
10:20 AM73 °FSunny.3 mph53%30.04 "Hg10 mi
9:50 AM72 °FPassing clouds.5 mph57%30.04 "HgN/A
9:20 AM70 °FSunny.2 mph60%30.04 "Hg10 mi
8:50 AM68 °FSunny.3 mph64%30.04 "Hg10 mi
8:20 AM66 °FSunny.1 mph68%30.04 "Hg10 mi
7:50 AM63 °FSunny.No wind77%30.04 "Hg10 mi
7:20 AM61 °FSunny.1 mph83%30.04 "Hg10 mi
Weather by CustomWeather, © 2015

See weather overviewHow to use our weather pages